WGS F7 (USA 263)

Last updated on Wed Sep 09 2026 00:03:00 GMT+0000 (Coordinated Universal Time)

1 40746U 15036A 26251.19463566 -.00000003 00000+0 00000+0 0 9994 2 40746 0.0163 131.7395 0000109 308.8241 151.7667 1.00271371 40704
UTC large
Height (km)
Speed (km/s)
/
Latitude / Longitude
Inclination (degrees)
Orbital Period (minutes)
Azimuth
Elevation
Range (km)
Doppler Factor

Next 0 passes for location: London (51.5072 / 0.1276)

No passes found over London.
WGS F7 (USA 263)